This is the latest recevied weather packets stored in our database for station/object KI4HRG. If no packets are shown the sender has not sent any weather packets the latest 10 day(s).
| Time | Temp. | Humidity | Pressure | Rain* | Wind** | Luminosity | Snow |
|---|---|---|---|---|---|---|---|
| 1787746762 | 23.89° C | 89% | 1016.9 hPa | 0 mm | - | 55 W/m² | - |
| 1787746461 | 23.33° C | 92% | 1016.8 hPa | 0 mm | - | 49 W/m² | - |
| 1787746155 | 22.22° C | 94% | 1016.9 hPa | 0 mm | - | 44 W/m² | - |
| 1787745850 | 22.22° C | 95% | 1016.9 hPa | 0 mm | - | 37 W/m² | - |
| 1787745548 | 21.67° C | 95% | 1016.7 hPa | 0 mm | - | 31 W/m² | - |
| 1787745243 | 21.67° C | 95% | 1016.8 hPa | 0 mm | - | 27 W/m² | - |
| 1787744938 | 21.67° C | 96% | 1016.6 hPa | 0 mm | - | 23 W/m² | - |
| 1787744634 | 21.67° C | 96% | 1016.6 hPa | 0 mm | - | 19 W/m² | - |
| 1787744330 | 21.67° C | 96% | 1016.6 hPa | 0 mm | - | 13 W/m² | - |
| 1787744025 | 21.67° C | 96% | 1016.6 hPa | 0 mm | - | 10 W/m² | - |
| 1787743719 | 21.67° C | 96% | 1016.5 hPa | 0 mm | - | 6 W/m² | - |
| 1787743414 | 21.67° C | 95% | 1016.4 hPa | 0 mm | - | 3 W/m² | - |
| 1787743111 | 21.67° C | 95% | 1016.5 hPa | 0 mm | - | 1 W/m² | - |
| 1787742806 | 21.67° C | 95% | 1016.3 hPa | 0 mm | - | 0 W/m² | - |
| 1787742501 | 21.67° C | 95% | 1016.2 hPa | 0 mm | - | 0 W/m² | - |
| 1787742198 | 21.67° C | 95% | 1016.4 hPa | 0 mm | - | 0 W/m² | - |
| 1787741898 | 21.67° C | 95% | 1016.4 hPa | 0 mm | - | 0 W/m² | - |
| 1787741593 | 21.67° C | 95% | 1016.2 hPa | 0 mm | - | 0 W/m² | - |
| 1787741288 | 21.67° C | 95% | 1016.5 hPa | 0 mm | - | 0 W/m² | - |
| 1787740987 | 21.67° C | 94% | 1016.4 hPa | 0 mm | - | 0 W/m² | - |
| 1787740682 | 21.67° C | 94% | 1016.3 hPa | 0 mm | - | 0 W/m² | - |
| 1787740376 | 21.67° C | 94% | 1016.4 hPa | 0 mm | - | 0 W/m² | - |
| 1787740071 | 21.67° C | 94% | 1016.2 hPa | 0 mm | - | 0 W/m² | - |
| 1787739767 | 21.67° C | 95% | 1016.3 hPa | 0 mm | - | 0 W/m² | - |
| 1787739464 | 21.67° C | 95% | 1016.4 hPa | 0 mm | - | 0 W/m² | - |
* Rain latest hour (hover to see other rain measurements)
** Current wind speed in m/s (hover to see current wind gust speed)